Location: Lavey
(46.2195°N, 7.0179°E)
Time: 07:10:09
(UTC+00:00)

Daily predictions for brighter satellites

Satellite Brightness Start Highest point End
(mag) Time Altitude Azimuth Time Altitude Azimuth Time Altitude Azimuth
Cosmos 1727 Rocket 4.1 19:16:19 10° N 19:22:40 65° E 19:28:57 10° SSE
Cosmos 2251 Rocket 3.5 19:17:44 10° SSW 19:22:58 74° ESE 19:28:16 10° NNE
Cosmos 1656 3.8 19:21:51 10° NNW 19:27:17 62° ENE 19:32:46 10° SE
Cosmos 1633 3.3 19:27:15 10° SSW 19:30:43 57° W 19:34:13 10° N
Resurs 01 Rocket 2.1 19:28:27 10° SE 19:32:38 43° ENE 19:36:50 10° N
Cosmos 972 Rocket 3.9 19:28:48 10° NNW 19:33:52 82° ENE 19:38:44 10° SSE
Cosmos 1441 Rocket 3.8 19:34:26 10° SSE 19:37:57 37° E 19:41:27 10° NNE
IRIDIUM 114 4.5 19:35:29 10° SSE 19:40:34 57° E 19:45:41 10° N
Cosmos 614 Rocket 4.2 19:36:36 10° S 19:41:29 46° ESE 19:46:28 10° NNE
Cosmos 1900 4.3 19:39:49 10° SSW 19:44:45 84° ESE 19:49:48 10° NE
USA 267 3.3 19:42:11 10° ENE 19:48:39 60° SE 19:55:05 10° SW
IRIDIUM 103 4.3 19:44:31 10° S 19:49:42 69° E 19:54:54 10° N
GP-B 4.4 19:46:56 10° NNE 19:50:29 23° E 19:53:13 14° SE
Cosmos 1821 Rocket 4.1 19:45:52 10° S 19:51:51 59° E 19:57:57 10° NNE
COSMOS 2406 3.2 19:48:05 10° SSW 19:53:48 71° ESE 19:59:31 10° NNE
Shenzhou-11 Module 2.2 19:52:11 10° WSW 19:54:22 33° S 19:55:30 20° SE
Cosmos 1743 Rocket 4.4 19:50:39 10° SSW 19:54:59 55° WNW 19:59:25 10° N
CZ-2C R/B 3.7 19:52:00 10° NNE 19:56:41 84° ESE 20:01:13 10° SSW
SL-16 R/B 4.3 19:54:22 10° N 19:57:39 15° NE 20:00:54 10° ENE
Intercosmos 25 3.3 19:53:52 10° N 19:58:26 67° E 20:01:25 13° SSE
ERS-1 Rocket 4.3 19:56:08 13° ESE 19:59:31 24° ENE 20:03:32 10° N
Lacrosse 5 3.6 19:56:10 10° NW 20:00:30 27° NNE 20:04:49 10° ENE
Cosmos 1862 3.4 19:59:09 10° S 20:03:12 81° W 20:07:17 10° N
Cosmos 2369 3.9 19:57:48 10° NNW 20:03:31 61° ENE 20:08:05 16° SE
Sich 1 3.1 19:59:43 10° S 20:04:06 65° E 20:08:31 10° NNE
IRIDIUM 106 4.4 20:02:46 10° S 20:07:59 84° W 20:13:14 10° N
BREEZE-M DEB (TANK) 2.9 20:04:53 10° W 20:08:06 44° N 20:09:54 11° ENE
Cosmos 1818 3.6 20:02:39 10° NW 20:08:09 85° NE 20:12:24 17° SE
Cosmos 2082 Rocket 2.7 20:03:47 10° S 20:09:01 39° ESE 20:14:15 10° NE
Cosmos 2278 4.1 20:07:12 10° NNW 20:12:46 50° ENE 20:16:44 19° SE
Cosmos 2123 Rocket 4.2 20:07:06 10° N 20:13:12 55° ENE 20:18:06 16° SSE
Spot 2 Rocket 3.7 20:11:24 17° SE 20:15:18 57° ENE 20:20:19 10° N
Cosmos 2322 Rocket 4.1 20:16:30 10° N 20:20:17 18° NE 20:24:03 10° E
Meteor 1-4 Rocket 2.7 20:17:28 10° N 20:20:52 50° ENE 20:22:26 27° SE
Cosmos 2239 Rocket 4.4 20:15:02 10° S 20:21:10 84° E 20:27:20 10° N
Cosmos 1184 Rocket 3.7 20:21:02 27° ESE 20:21:43 29° E 20:24:39 10° NNE
Cosmos 1190 Rocket 4.0 20:16:36 10° S 20:21:47 62° ESE 20:27:02 10° NNE
Terra 3.2 20:21:08 17° ESE 20:23:26 24° ENE 20:27:14 10° N
USA 234 3.4 20:18:46 16° ESE 20:24:05 72° NNE 20:30:36 10° NW
CZ-2C R/B 4.1 20:19:28 10° N 20:24:15 39° WNW 20:29:01 10° SW
Cosmos 407 Rocket 3.5 20:19:23 10° SSW 20:24:43 80° ESE 20:30:02 10° NNE
Cosmos 1605 Rocket 4.4 20:21:08 17° SSE 20:25:22 41° E 20:31:01 10° NNE
Cosmos 1666 Rocket 3.4 20:21:27 10° S 20:25:41 73° E 20:30:01 10° NNE
SL-8 R/B 4.5 20:21:40 10° WNW 20:26:10 40° SSW 20:28:49 21° SSE
Cosmos 1238 Rocket 3.7 20:28:02 21° E 20:28:02 21° E 20:30:02 10° NE
MetOp-B 4.2 20:25:44 15° SSE 20:30:16 83° WSW 20:35:40 10° NNW
Meteor 1-27 Rocket 3.9 20:25:43 10° NNW 20:31:39 79° W 20:36:53 14° S
Cosmos 2360 Rocket 4.4 20:31:19 10° N 20:34:11 14° NE 20:37:02 10° ENE
BREEZE-M DEB (TANK) 3.9 20:34:47 10° W 20:37:33 16° WSW 20:39:00 12° SSW
USA 238 DEB 4.0 20:31:30 10° S 20:37:36 42° ESE 20:43:56 10° NE
SPOT 5 3.3 20:35:54 27° ESE 20:37:39 39° ENE 20:41:43 10° N
USA 238 4.0 20:31:38 10° S 20:37:43 41° ESE 20:44:02 10° NE
SPOT 1/Viking Rocket 3.5 20:39:53 24° SSE 20:43:09 81° ENE 20:48:25 10° NNW
Cosmos 1980 Rocket 2.2 20:38:17 10° NNW 20:44:00 75° ENE 20:47:05 28° SE
Cosmos 2242 Rocket 4.3 20:42:01 10° N 20:46:11 38° ENE 20:47:28 31° ESE
SL-4 R/B 1.6 20:43:53 10° WSW 20:47:49 78° SSE 20:51:29 10° ENE
BREEZE-M DEB (TANK) 3.1 20:46:11 10° W 20:48:59 61° N 20:56:33 10° ENE
Cosmos 405 Rocket 3.3 20:49:22 35° E 20:49:28 35° E 20:52:53 10° NNE
Genesis I 3.2 20:45:40 10° NNW 20:49:32 68° NE 20:50:44 41° ESE
Cosmos 1140 Rocket 3.6 20:45:09 10° SSW 20:50:24 81° WNW 20:55:41 10° NNE
ATLAS 5 CENTAUR R/B 3.7 20:47:17 10° NW 20:52:30 33° WSW 20:57:17 14° S
USA 32 3.9 20:53:02 23° S 20:56:24 81° E 21:01:40 10° N
Cosmos 1633 Rocket 3.5 20:55:05 13° SSW 20:59:01 61° W 21:03:25 10° N
Cosmos 1697 Rocket 3.4 20:54:14 10° NW 20:59:36 47° WSW 21:03:04 21° S
Cosmos 1833 Rocket 3.4 20:54:12 10° SW 20:59:41 54° WNW 21:05:14 10° NNE
Cosmos 1867 3.5 21:00:38 10° SSW 21:06:04 82° SE 21:11:34 10° NE
CENTAUR R/B 2.9 21:04:46 33° SE 21:06:11 37° ESE 21:12:20 10° NE
Meteor 1-18 Rocket 4.2 21:02:07 10° N 21:07:42 65° ENE 21:09:49 37° SE
Okean 1-7 3.6 21:03:44 10° N 21:07:52 41° ENE 21:08:30 38° E
Resurs 01 Rocket 3.8 21:06:00 10° SW 21:09:19 21° W 21:12:40 10° NW
FALCON 9 DEB 3.1 21:10:01 10° WSW 21:13:31 83° NNW 21:15:22 26° ENE
Cosmos 1447 Rocket 4.5 21:08:30 10° N 21:14:53 78° E 21:17:47 35° SSE
Cosmos 1850 Rocket 4.4 21:14:19 40° SE 21:15:07 43° ESE 21:20:06 10° NE
Meteor 2-4 Rocket 4.2 21:11:53 10° N 21:17:19 44° ENE 21:18:53 35° ESE
Cosmos 1515 3.9 21:14:32 10° N 21:18:19 53° ENE 21:18:22 53° E
Cosmos 676 Rocket 4.2 21:14:02 10° SSW 21:19:18 73° WNW 21:24:40 10° NNE
Meteor 1-25 Rocket 4.2 21:17:53 23° SSW 21:21:27 79° WNW 21:27:06 10° N
ATLAS 5 CENTAUR R/B 3.4 21:19:06 10° NNW 21:21:33 27° NE 21:23:25 21° E
Cosmos 1470 Rocket 3.9 21:19:31 28° SSW 21:21:44 63° W 21:26:07 10° N
GP-B 4.4 21:23:49 10° NNW 21:27:54 36° W 21:30:41 18° SW
USA 267 3.9 21:25:17 10° NE 21:31:38 55° NNW 21:37:59 10° W
NOSS 3-2 (A) 3.3 21:26:25 10° SW 21:32:07 89° SE 21:38:41 10° NE
Cosmos 921 Rocket 3.2 21:30:05 10° NNW 21:34:15 58° WSW 21:34:50 51° SW
NOSS 3-2 (C) 3.3 21:35:51 38° S 21:38:01 64° ESE 21:44:25 10° NE
ERS-1 Rocket 3.6 21:36:08 32° SSW 21:38:02 48° W 21:42:54 10° NNW
Cosmos 841 Rocket 4.0 21:35:56 10° NNW 21:40:59 46° ENE 21:42:00 41° E
Cosmos 540 Rocket 4.0 21:37:25 10° N 21:42:24 45° ENE 21:43:22 41° E
SL-16 R/B 2.3 21:37:13 10° NNW 21:42:53 67° ENE 21:44:17 49° ESE
Lacrosse 5 2.1 21:39:11 10° NW 21:44:15 64° NE 21:45:31 47° E
Cosmos 468 Rocket 4.0 21:39:19 10° NNW 21:44:39 81° WSW 21:45:45 57° S
Cosmos 1741 Rocket 3.9 21:48:23 57° S 21:49:28 80° ESE 21:54:46 10° NNE
Cosmos 1570 Rocket 4.2 21:47:02 10° NNW 21:52:18 59° ENE 21:53:10 52° ESE
Cosmos 2082 Rocket 3.6 21:47:52 10° WSW 21:53:07 37° NW 21:58:23 10° NNE
Cosmos 2219 Rocket 4.2 21:49:34 10° N 21:53:32 19° NE 21:56:38 13° E
Cosmos 2208 Rocket 4.3 21:49:14 10° NNW 21:54:23 51° ENE 21:55:11 47° E
Cosmos 1814 Rocket 4.4 21:49:42 10° NNW 21:54:45 49° ENE 21:55:32 45° E
Terra 2.5 22:00:02 39° SW 22:00:56 44° W 22:05:30 10° NNW
Cosmos 2322 Rocket 2.1 21:59:32 10° NNW 22:05:16 81° ENE 22:06:13 63° SE
USA 234 3.8 22:06:06 36° SSW 22:07:22 40° SW 22:13:28 10° WNW
Cosmos 2100 Rocket 3.9 22:05:36 48° SSW 22:07:26 83° W 22:13:37 10° N
Meteor 1-11 Rocket 3.8 22:09:09 55° ESE 22:09:29 56° E 22:15:04 10° NNE
Cosmos 1437 Rocket 3.9 22:07:39 10° NNW 22:10:50 35° W 22:10:50 35° W
Cosmos 1869 Rocket 3.7 22:13:01 65° W 22:13:07 65° W 22:17:33 10° N
Cosmos 1242 Rocket 4.4 22:10:01 10° N 22:12:07 24° NE 22:12:07 24° NE
SPOT 5 4.4 22:15:08 20° WSW 22:15:55 21° W 22:19:15 10° NW
Cosmos 2360 Rocket 2.4 22:13:50 10° NNW 22:19:28 59° ENE 22:20:19 53° E
COSMOS 2428 4.4 22:15:31 10° N 22:20:11 25° NE 22:22:36 19° E
Geosat 3.8 22:20:48 78° SSW 22:21:01 80° WSW 22:26:06 10° NNW
ATLAS 3B R/B 2.8 22:21:12 49° ESE 22:21:12 49° ESE 22:27:25 10° NE
Iridium 4 Rocket 3.4 22:21:45 58° W 22:21:45 58° W 22:25:52 10° N
Cosmos 2173 Rocket 4.1 22:21:11 46° SW 22:23:01 69° W 22:29:10 10° N
Cosmos 1500 4.3 22:25:10 40° NW 22:25:10 40° NW 22:28:10 10° N
CRYOSAT 2 4.3 22:21:58 10° N 22:26:46 82° ENE 22:26:46 82° ENE
ALOS 2 3.4 22:27:44 42° NE 22:27:44 42° NE 22:31:29 10° N
Cosmos 1980 Rocket 4.1 22:23:40 10° WNW 22:27:19 18° W 22:28:51 16° WSW
SL-4 R/B 3.2 22:24:06 10° W 22:27:12 36° NNW 22:27:12 36° NNW
Cosmos 1725 Rocket 3.9 22:27:19 63° SSE 22:28:18 76° E 22:34:38 10° NNE
USA 238 DEB 4.4 22:21:58 10° WSW 22:28:26 51° NW 22:35:13 10° NE
USA 238 4.4 22:22:05 10° WSW 22:28:32 51° NW 22:35:19 10° NE
Cosmos 1763 Rocket 4.4 22:25:49 10° NW 22:30:42 38° WSW 22:31:09 37° WSW
SL-08 R/B 4.3 22:32:18 68° S 22:33:09 84° E 22:39:16 10° N
Cosmos 1536 3.8 22:34:39 43° NNE 22:34:39 43° NNE 22:37:26 10° NNE
Cosmos 1674 Rocket 4.3 22:29:44 10° N 22:33:13 45° NE 22:33:13 45° NE
Cosmos 1666 4.0 22:37:32 39° N 22:37:32 39° N 22:39:59 10° N
Cosmos 2333 Rocket 3.2 22:34:30 10° NNW 22:39:54 38° NE 22:41:19 33° E
Cosmos 2016 Rocket 4.1 22:39:51 55° SW 22:41:13 74° W 22:47:37 10° N
Cosmos 1271 Rocket 4.5 22:38:32 10° N 22:40:47 26° NE 22:40:47 26° NE
Cosmos 2061 Rocket 4.0 22:41:22 56° SW 22:42:38 72° W 22:48:51 10° N
Lacrosse 4 Rocket 3.5 22:45:24 20° ENE 22:45:24 20° ENE 22:46:52 10° NE
Meteor 1-13 Rocket 4.3 22:37:32 10° NNW 22:43:00 61° W 22:43:23 60° WSW
Cosmos 2237 Rocket 4.5 22:39:58 10° N 22:43:36 17° NE 22:47:13 10° E
MOS 1-B Rocket 4.1 22:39:54 10° N 22:45:32 63° WNW 22:46:44 50° WSW
Cosmos 2221 Rocket 4.2 22:42:40 10° NNW 22:46:29 50° WNW 22:46:29 50° WNW
Cosmos 1733 Rocket 3.6 22:50:59 58° N 22:50:59 58° N 22:54:35 10° N
Cosmos 1066 Rocket 4.1 22:47:48 10° NNW 22:53:35 86° W 22:53:46 83° SSW
Meteor 1-23 Rocket 4.1 22:49:31 10° NNW 22:55:24 87° W 22:55:43 81° S
CENTAUR R/B 3.3 22:51:50 17° WSW 22:56:34 52° NW 23:03:40 10° NE
Thor Agena Rocket 3.6 22:51:44 10° N 22:56:47 66° WNW 22:57:00 65° W
Cosmos 968 Rocket 4.3 22:59:01 40° ENE 22:59:01 40° ENE 23:02:50 10° NNE
Cosmos 967 Rocket 4.4 22:54:28 10° NW 23:00:46 64° WSW 23:01:03 64° SW
Cosmos 44 4.1 22:57:43 10° NW 23:01:33 44° W 23:01:33 44° W
Cosmos 2233 Rocket 3.9 23:14:31 67° SW 23:15:18 76° W 23:21:40 10° N
Cosmos 1464 Rocket 4.5 23:15:36 44° E 23:16:00 45° E 23:21:52 10° NNE
Cosmos 1908 Rocket 4.4 23:18:33 48° NNE 23:18:33 48° NNE 23:21:47 10° NNE
Cosmos 2227 Rocket 4.4 23:22:42 12° E 23:22:42 12° E 23:24:24 10° ENE
SL-16 R/B 3.9 23:22:24 10° NW 23:26:08 20° W 23:26:08 20° W
Lacrosse 5 3.7 23:22:36 10° WNW 23:24:41 21° W 23:24:41 21° W
Cosmos 1833 4.4 23:28:44 60° W 23:29:16 63° WNW 23:34:55 10° NNE
Cosmos 2322 3.6 23:24:05 10° NNW 23:29:31 75° W 23:29:31 75° W
Cosmos 2219 Rocket 2.1 23:32:36 10° NNW 23:38:19 87° NE 23:38:19 87° NE
Cosmos 1513 Rocket 4.4 23:42:38 69° SE 23:43:12 74° E 23:49:37 10° NNE
Cosmos 1975 Rocket 3.8 23:38:51 10° N 23:42:25 53° NNE 23:42:25 53° NNE
Cosmos 2333 4.4 23:38:26 10° NNW 23:43:44 59° W 23:43:44 59° W
Cosmos 2034 Rocket 4.3 23:43:53 51° ESE 23:44:27 53° E 23:50:33 10° NNE
Cosmos 1503 Rocket 4.1 23:45:55 74° ENE 23:45:55 74° ENE 23:50:55 10° NNE
Cosmos 1072 Rocket 4.3 23:46:51 78° SSE 23:47:13 82° E 23:53:20 10° N
Helios 1A 4.1 23:49:48 41° NW 23:49:48 41° NW 23:52:41 10° NNW
Cosmos 2322 Rocket 4.2 23:45:09 10° WNW 23:48:01 16° W 23:48:01 16° W
SL-16 R/B 4.2 23:46:15 15° ESE 23:50:02 26° ENE 23:55:04 10° N
Cosmos 1486 Rocket 4.4 23:52:11 54° WNW 23:52:16 54° WNW 23:57:24 10° NNE
SL-16 R/B 4.4 23:49:41 10° N 23:53:58 21° NE 23:58:13 10° E
CZ-2D R/B 4.2 23:50:45 10° NE 23:54:10 16° E 23:54:54 16° E
Sich 1 Rocket 4.4 23:55:31 47° NE 23:55:31 47° NE 23:58:49 10° NNE
